Rexburg, ID

9:36 PM MDT on May 28, 2017 (GMT -0600)
Rexburg-Madison County

Weather History for KRXE - November, 2013

Change the Weather History Date:

Wednesday, November 6, 2013

  Actual Average Record
Temperature  
Mean Temperature 35 °F 36 °F  
Max Temperature 40 °F 47 °F 68 °F (1999)
Min Temperature 29 °F 25 °F 4 °F (2003)
Degree Days  
Heating Degree Days 30 29  
Month to date heating degree days 180 168  
Since 1 July heating degree days 1021 1155  
Cooling Degree Days 0 0  
Month to date cooling degree days 0 0  
Year to date cooling degree days 452 208  
Moisture  
Dew Point 30 °F    
Average Humidity 91    
Maximum Humidity 100    
Minimum Humidity 82    
Precipitation  
Precipitation 0.01 in 0.04 in 0.40 in (1977)
Month to date precipitation 0.03 0.23  
Year to date precipitation 7.38 11.22  
Sea Level Pressure  
Sea Level Pressure 30.36 in    
Wind  
Wind Speed 6 mph (South)    
Max Wind Speed 14 mph    
Max Gust Speed 20 mph    
Visibility 8 miles    
Events Rain , Snow    
T = Trace of Precipitation, MM = Missing Value Source: NWS Daily Summary

Daily Weather History Graph

Daily Weather History Graph

Search for Another Location

Airport or City:

Trip Planner

Search our weather history database for the weather conditions in past years. The results will help you decide how hot, cold, wet, or windy it might be!

Date:

Astronomy

Nov. 06, 2013 Rise Set
Actual Time 7:10 AM MST 5:10 PM MST
Civil Twilight 6:39 AM MST 5:41 PM MST
Nautical Twilight 6:05 AM MST 6:15 PM MST
Astronomical Twilight 5:32 AM MST 6:49 PM MST
Moon 10:31 AM MST (11/6) 8:16 PM MST (11/6)
Length of Visible Light 11h 01m
Length of Day
10h 00m
Waxing Crescent, 14% of the Moon is Illuminated
Nov 6
Waxing Crescent
Nov 9
First Quarter
Nov 17
Full
Nov 25
Last Quarter
Dec 2
New

Hourly Weather History & Observations

Time (MST) Temp. Windchill Dew Point Humidity Pressure Visibility Wind Dir Wind Speed Gust Speed Precip Events Conditions
12:53 AM 30.0 °F 20.5 °F 24.1 °F 79% 30.33 in 10.0 mi South 11.5 mph - 0.00 in   Overcast
1:53 AM 28.9 °F 19.2 °F 25.0 °F 85% 30.33 in 10.0 mi South 11.5 mph - N/A   Overcast
2:18 AM 28.9 °F 18.6 °F 26.1 °F 89% 30.24 in 6.0 mi SSW 12.7 mph 18.4 mph N/A   Overcast
2:53 AM 28.9 °F 19.8 °F 26.1 °F 89% 30.31 in 10.0 mi South 10.4 mph - N/A   Overcast
3:53 AM 30.0 °F 21.7 °F 26.1 °F 85% 30.31 in 10.0 mi SSW 9.2 mph - N/A   Overcast
4:53 AM 30.9 °F 21.2 °F 28.0 °F 89% 30.31 in 10.0 mi SSW 12.7 mph - N/A   Overcast
5:28 AM 30.0 °F 22.4 °F 28.0 °F 92% 30.24 in 3.0 mi SSW 8.1 mph - 0.00 in Snow Light Snow
5:37 AM 30.0 °F 21.7 °F 28.0 °F 92% 30.25 in 2.0 mi South 9.2 mph - 0.00 in Snow Light Snow
5:53 AM 30.0 °F 21.1 °F 28.9 °F 96% 30.32 in 2.5 mi South 10.4 mph - 0.00 in Snow Light Snow
6:02 AM 30.0 °F 21.7 °F 28.9 °F 96% 30.25 in 3.0 mi South 9.2 mph - 0.00 in   Overcast
6:53 AM 30.0 °F 23.2 °F 28.9 °F 96% 30.35 in 4.0 mi SSW 6.9 mph - 0.00 in   Overcast
7:21 AM 30.9 °F 24.3 °F 28.9 °F 92% 30.27 in 6.0 mi South 6.9 mph - 0.01 in   Overcast
7:49 AM 30.2 °F 20.8 °F 28.4 °F 93% 30.28 in 5.0 mi South 11.5 mph - 0.01 in   Overcast
7:53 AM 30.9 °F 21.2 °F 28.9 °F 92% 30.35 in 5.0 mi South 12.7 mph - 0.01 in   Overcast
8:42 AM 30.9 °F 22.2 °F 28.9 °F 92% 30.30 in 3.0 mi South 10.4 mph - 0.00 in Rain Light Freezing Rain
8:49 AM 30.2 °F 21.3 °F 28.4 °F 93% 30.30 in 4.0 mi South 10.4 mph - 0.00 in   Overcast
8:53 AM 30.9 °F 22.8 °F 30.0 °F 96% 30.38 in 4.0 mi South 9.2 mph - 0.00 in   Overcast
9:53 AM 32.0 °F 24.2 °F 30.9 °F 96% 30.40 in 6.0 mi SSW 9.2 mph - 0.00 in   Overcast
10:53 AM 32.0 °F 24.8 °F 30.9 °F 96% 30.42 in 8.0 mi West 8.1 mph - N/A   Overcast
11:53 AM 32.0 °F 27.5 °F 30.0 °F 92% 30.43 in 10.0 mi WNW 4.6 mph - N/A   Overcast
12:53 PM 34.0 °F - 30.0 °F 85% 30.43 in 10.0 mi Calm Calm - N/A   Overcast
1:53 PM 35.1 °F - 30.9 °F 85% 30.43 in 10.0 mi Calm Calm - N/A   Overcast
2:19 PM 36.0 °F 33.3 °F 32.0 °F 86% 30.35 in 10.0 mi ESE 3.5 mph - N/A   Overcast
2:51 PM 35.6 °F - 32.0 °F 87% 30.35 in 10.0 mi Calm Calm - N/A   Overcast
2:53 PM 36.0 °F 33.3 °F 32.0 °F 86% 30.42 in 10.0 mi NE 3.5 mph - N/A   Overcast
3:53 PM 37.9 °F - 33.1 °F 83% 30.40 in 10.0 mi Calm Calm - N/A   Mostly Cloudy
4:09 PM 37.9 °F - 33.1 °F 83% 30.34 in 10.0 mi Calm Calm - N/A   Partly Cloudy
4:50 PM 37.4 °F 32.8 °F 33.8 °F 87% 30.35 in 10.0 mi NE 5.8 mph - N/A   Mostly Cloudy
4:53 PM 37.9 °F 34.4 °F 33.1 °F 83% 30.41 in 10.0 mi NE 4.6 mph - N/A   Mostly Cloudy
5:31 PM 36.0 °F 30.3 °F 33.1 °F 89% 30.35 in 10.0 mi NE 6.9 mph - N/A   Overcast
5:53 PM 35.1 °F 30.1 °F 32.0 °F 89% 30.43 in 10.0 mi ENE 5.8 mph - N/A   Overcast
6:08 PM 35.1 °F 30.1 °F 32.0 °F 89% 30.35 in 10.0 mi ENE 5.8 mph - N/A   Overcast
6:41 PM 35.1 °F 31.0 °F 32.0 °F 89% 30.37 in 10.0 mi NE 4.6 mph - N/A   Overcast
6:53 PM 34.0 °F - 32.0 °F 92% 30.45 in 10.0 mi Calm Calm - N/A   Overcast
7:53 PM 35.1 °F 30.1 °F 32.0 °F 89% 30.42 in 10.0 mi East 5.8 mph - N/A   Overcast
8:53 PM 34.0 °F 31.0 °F 30.9 °F 89% 30.42 in 10.0 mi NW 3.5 mph - N/A   Scattered Clouds
9:53 PM 35.1 °F - 32.0 °F 89% 30.43 in 10.0 mi Calm Calm - N/A   Overcast
10:16 PM 35.1 °F 31.0 °F 32.0 °F 89% 30.37 in 10.0 mi North 4.6 mph - N/A   Overcast
10:53 PM 35.1 °F 32.2 °F 32.0 °F 89% 30.44 in 10.0 mi NNE 3.5 mph - N/A   Overcast
11:53 PM 37.0 °F 33.3 °F 32.0 °F 82% 30.42 in 10.0 mi SW 4.6 mph - N/A   Overcast